DW6848 Weather Reports


time (UTC)temp
F
wind
direction
speed
knots
gust
knots
rain 1hr
in
rain 24hr
in
rain mn
in
humidity
%
barometer
mb
20260906131523 81 96 0.0 3.5 0.00 0.00 0.00 82 1013.4
20260906130026 80 100 0.0 5.2 0.00 0.00 0.00 84 1013.5
20260906124521 80 95 0.9 4.3 0.00 0.00 0.00 85 1013.4
20260906123026 79 110 3.5 9.6 0.00 0.00 0.00 87 1013.3
20260906121523 78 231 0.0 0.0 0.00 0.00 0.00 90 1012.9
20260906120019 77 231 0.0 0.0 0.00 0.00 0.00 91 1012.7
20260906114521 77 231 0.0 0.0 0.00 0.00 0.00 91 1012.7
20260906113020 77 231 0.0 0.0 0.00 0.00 0.00 90 1012.5
20260906111518 77 231 0.0 0.0 0.00 0.00 0.00 90 1012.3
20260906110021 78 231 0.0 0.0 0.00 0.00 0.00 89 1012.2
20260906104520 78 231 0.0 0.0 0.00 0.00 0.00 89 1012.1
20260906103022 78 231 0.0 0.0 0.00 0.00 0.00 88 1012.0
20260906101520 78 231 0.0 0.0 0.00 0.00 0.00 88 1012.0
20260906100017 78 231 0.0 0.0 0.00 0.00 0.00 88 1011.7
20260906094524 78 231 0.0 0.0 0.00 0.00 0.00 88 1011.7
20260906093030 78 231 0.0 0.0 0.00 0.00 0.00 87 1011.5
20260906091520 78 231 0.0 0.0 0.00 0.00 0.00 87 1011.4
20260906090022 79 231 0.0 0.0 0.00 0.00 0.00 86 1011.4
20260906084518 79 231 0.0 0.0 0.00 0.00 0.00 85 1011.4
20260906083024 79 231 0.0 0.0 0.00 0.00 0.00 85 1011.5
20260906081525 80 231 0.0 0.0 0.00 0.00 0.00 84 1011.5
20260906080020 80 231 0.0 0.0 0.00 0.00 0.00 83 1011.6
20260906074521 80 231 0.0 0.0 0.00 0.00 0.00 82 1011.6
20260906073021 81 231 0.0 0.0 0.00 0.00 0.00 81 1011.6
20260906071523 81 231 0.0 0.0 0.00 0.00 0.00 80 1011.6
20260906070022 82 231 0.0 0.9 0.00 0.00 0.00 79 1011.6
20260906064518 82 231 0.0 0.0 0.00 0.00 0.00 78 1011.7
20260906063020 82 231 0.0 1.7 0.00 0.00 0.00 78 1011.8
20260906061519 82 231 0.0 0.0 0.00 0.00 0.00 77 1011.9
20260906060023 83 231 0.0 1.7 0.00 0.00 0.00 77 1012.1
20260906054521 83 231 0.0 0.9 0.00 0.00 0.00 77 1012.1
20260906053022 83 231 0.0 1.7 0.00 0.00 0.00 77 1012.0
20260906051523 83 252 0.0 0.0 0.00 0.00 0.00 76 1011.7
20260906050020 83 252 0.0 0.0 0.00 0.00 0.00 75 1011.7
20260906044520 83 252 0.0 0.0 0.00 0.00 0.00 74 1011.6
20260906043022 84 252 0.0 0.0 0.00 0.00 0.00 74 1011.4
20260906041525 84 252 0.0 0.0 0.00 0.00 0.00 73 1011.7
20260906040022 85 252 0.0 0.0 0.00 0.00 0.00 72 1011.7
20260906034526 85 252 0.0 0.0 0.00 0.00 0.00 72 1011.7
20260906033020 85 252 0.0 0.0 0.00 0.00 0.00 71 1011.7
20260906031521 86 252 0.0 0.0 0.00 0.00 0.00 70 1011.8
20260906030020 86 251 0.0 0.0 0.00 0.00 0.00 69 1011.8
20260906024522 87 252 0.0 2.6 0.00 0.00 0.00 68 1011.8
20260906023023 87 77 0.0 0.0 0.00 0.00 0.00 66 1011.8
20260906021521 87 77 0.0 0.0 0.00 0.00 0.00 65 1011.4
20260906020023 88 77 0.0 0.0 0.00 0.00 0.00 64 1011.2
20260906014523 89 77 0.0 0.0 0.00 0.00 0.00 62 1011.0
20260906013020 90 77 0.0 0.0 0.00 0.00 0.00 60 1010.7
20260906011527 90 77 0.0 0.0 0.00 0.00 0.00 59 1010.6
20260906010022 91 77 0.0 0.0 0.00 0.00 0.00 58 1010.5
20260906004523 92 77 0.0 0.0 0.00 0.00 0.00 56 1010.4
20260906003022 94 77 0.0 0.0 0.00 0.00 0.00 53 1010.5
20260906001603 95 77 0.0 0.0 0.00 0.00 0.00 51 1010.5
20260906000024 96 121 0.0 0.0 0.00 0.00 0.00 50 1010.3
20260905234525 96 120 0.0 4.3 0.00 0.00 0.00 48 1010.5
20260905233008 97 127 0.0 3.5 0.00 0.00 0.00 48 1010.5
20260905231507 97 77 0.0 5.2 0.00 0.00 0.00 47 1010.3
20260905230005 97 94 0.9 4.3 0.00 0.00 0.00 47 1010.4
20260905224516 98 99 1.7 6.1 0.00 0.00 0.00 47 1010.4
20260905223008 98 51 1.7 4.3 0.00 0.00 0.00 48 1010.4
20260905221526 98 57 2.6 7.0 0.00 0.00 0.00 48 1010.5
20260905220008 98 120 0.0 4.3 0.00 0.00 0.00 49 1010.4
20260905214509 97 119 0.9 3.5 0.00 0.00 0.00 50 1010.6
20260905213011 97 105 0.0 3.5 0.00 0.00 0.00 50 1010.7
20260905211507 98 116 2.6 6.1 0.00 0.00 0.00 47 1010.8
20260905210009 100 65 5.2 9.6 0.00 0.00 0.00 46 1010.8
20260905204511 100 71 0.9 5.2 0.00 0.00 0.00 45 1010.9
20260905203011 98 108 0.0 4.3 0.00 0.00 0.00 48 1011.1
20260905201524 98 98 0.9 6.1 0.00 0.00 0.00 48 1011.5
20260905200014 100 126 2.6 7.0 0.00 0.00 0.00 45 1011.5
20260905194510 100 265 0.9 5.2 0.00 0.00 0.00 45 1011.7
20260905193013 100 104 1.7 6.1 0.00 0.00 0.00 47 1012.0
20260905191512 100 55 1.7 6.1 0.00 0.00 0.00 47 1012.2
20260905190013 100 124 1.7 5.2 0.00 0.00 0.00 47 1012.4
20260905184511 98 119 0.9 3.5 0.00 0.00 0.00 51 1012.6
20260905183011 98 80 1.7 7.0 0.00 0.00 0.00 50 1012.8
20260905181516 99 60 0.9 4.3 0.00 0.00 0.00 50 1012.9
20260905180014 98 123 2.6 6.1 0.00 0.00 0.00 51 1013.1
20260905174514 98 146 2.6 8.7 0.00 0.00 0.00 52 1013.2
20260905173025 97 58 1.7 5.2 0.00 0.00 0.00 53 1013.4
20260905171514 96 106 3.5 7.8 0.00 0.00 0.00 53 1013.5
20260905170012 95 103 0.9 6.1 0.00 0.00 0.00 55 1013.6
20260905164509 95 163 0.9 4.3 0.00 0.00 0.00 57 1013.8
20260905163028 95 113 2.6 7.0 0.00 0.00 0.00 56 1014.1
20260905161509 94 317 0.0 3.5 0.00 0.00 0.00 59 1014.1
20260905160029 93 86 0.0 2.6 0.00 0.00 0.00 61 1014.3
20260905154509 91 97 0.0 5.2 0.00 0.00 0.00 63 1014.4
20260905153007 90 117 0.0 3.5 0.00 0.00 0.00 66 1014.4
20260905151527 89 359 0.0 0.9 0.00 0.00 0.00 69 1014.4
20260905150010 88 15 0.0 0.9 0.00 0.00 0.00 70 1014.3
20260905144527 87 15 0.9 2.6 0.00 0.00 0.00 71 1014.2
20260905143030 86 295 0.0 0.9 0.00 0.00 0.00 74 1014.3
20260905141528 85 297 0.0 1.7 0.00 0.00 0.00 75 1014.4
20260905140021 83 293 0.0 1.7 0.00 0.00 0.00 77 1014.1
20260905134523 82 184 0.0 1.7 0.00 0.00 0.00 81 1014.3
20260905133022 81 167 0.0 1.7 0.00 0.00 0.00 82 1014.4